FENGYUN 1C DEB, 30075

Orbit data source: Space-Track

FENGYUN 1C DEB, 30075 is space debris in SSO originally from a launch on Mon, 10 May 1999 UTC launched from the Taiyaun Space Center, China (TSC). Fengyun 1C debris stems from the Chinese weather satellite Fengyun-1C, which was intentionally destroyed by a Chinese anti-satellite missile in 2007. This event dramatically increased the amount of space debris, with thousands of trackable fragments posing hazards to satellites and human spaceflight. The Fengyun 1C debris cloud has become a focal point in discussions about space sustainability and the need for international regulations to prevent the creation of new debris.

Loading next visibility...
Identifier
30075, 1999-025QC
Orbit
SSO
Country
Flag of CNCN / PRC
Related business
Manufacturer
Unknown
Mission
Spacecraft
Bus & Motor
Unknown
Mass
Unknown
Launch date (UTC)
1999-05-10 (26 years ago)
Launch vehicle
Unknown
Launch site
Taiyaun Space Center, China (TSC)
Object type
Payload
Rocket body
Debris
Shape & HBR
Unknown shape, 0.1 m
Radar Cross Section
Small (<0.1 m²)

Expand to show TLE details & history
Last TLE update: 11 hours ago

TLE from 11 hours ago
0 FENGYUN 1C DEB
1 30075U 99025QC  25307.97580041  .00000109  00000-0  11690-3 0  9991
2 30075  99.3676 357.8774 0089980 282.1614 199.0877 13.92511534955257
Epoch: 2025-11-03T23:25Z
TLE epoch observation values (Epoch: 2025-11-03T23:25:09.155Z)
Latitude
57.92832°
Longitude
158.30305°
Altitude
991.666 km
Speed
7.33 km/s
True Right ascension
12h 52m 14s
True Declination
57° 46' 42"
Sunlit
Object was in daylight at epoch
Visualization orbit readout
Latitude
Unknown
Longitude
Unknown
Altitude
Unknown
Speed
Unknown
Apparent Right ascension
Unknown
Apparent Declination
Unknown
Sunlit
N/A
Visualization observer readout
Local Sidereal Time
06:27:59
Azimuth
Unknown
Elevation
Unknown
Doppler factor
Unknown
Orbital elements
Apogee altitude
982.712 km
Perigee altitude
851.428 km
Semi-major axis
7,295.207 km
Eccentricity
0.009
Inclination
99.3676°
RAAN
357.8774°
Arg. of periapsis
282.1614°
True anomaly
198.75407°
Mean anomaly
199.0877°
Eccentric anomaly
198.92053°
Mean motion
3.48327 °/min
Orbital period
103.35 mins
BSTAR
0.0001169
Loading maneuver chart data...
Computing Atmospheric mass density...

Documentation

Showing up to 5 results
|